Skip Page Navigation
NASA JPL Caltech
NASA Logo - Jet Propulsion Laboratory + View the NASA Portal
+ Center for Near-Earth Object Studies
JPL Home Earth Solar System Stars & Galaxies Technology
JPL Solar System Dynamics
BODIES ORBITS EPHEMERIDES TOOLS PHYSICAL DATA DISCOVERY FAQ SITE MAP
IMPORTANT: The SSD Announcement email list is now available. Major changes are coming in the near future, including possible hostname and/or URL changes. To be notified of such changes, subscribe to this email list.

Please visit this page for more details.


JPL Small-Body Database Browser
Search: [ help ]  
452646 (2005 UZ129)
Classification: Main-belt Asteroid          SPK-ID: 2452646
Ephemeris | Orbit Diagram | Orbital Elements | Mission Design | Physical Parameters | Discovery Circumstances ]

[ show orbit diagram ]
Orbital Elements at Epoch 2458600.5 (2019-Apr-27.0) TDB
Reference: JPL 11 (heliocentric ecliptic J2000)
 Element Value Uncertainty (1-sigma)   Units 
e .01443865930193815 9.5855e-08  
a 2.85104786134645 4.9479e-08 au
q 2.809882552622949 2.5991e-07 au
i 7.273301686445697 9.6909e-06 deg
node 38.49701261914083 6.9794e-05 deg
peri 108.6128446778803 0.00034199 deg
M 188.1338006505162 0.0003295 deg
tp 2459439.946767674063
(2021-Aug-13.44676767)
0.0016053 TDB
period 1758.349445711242
4.81
4.5773e-05
1.253e-07
d
yr
n .2047374603939333 5.3297e-09 deg/d
Q 2.892213170069951 5.0193e-08 au
  Orbit Determination Parameters
   # obs. used (total)      80  
   data-arc span      7831 days (21.44 yr)  
   first obs. used      1995-10-20  
   last obs. used      2017-03-29  
   planetary ephem.      DE431  
   SB-pert. ephem.      SB431-N16  
   condition code      0  
   norm. resid. RMS      .58635  
   source      ORB  
   producer      Otto Matic  
   solution date      2017-Apr-09 10:47:54  

Additional Information
 Earth MOID = 1.8246 au 
 Jupiter MOID = 2.07996 au 
 T_jup = 3.293 
[ show covariance matrix ]

Ephemeris | Orbit Diagram | Orbital Elements | Mission Design | Physical Parameters | Discovery Circumstances ]

Physical Parameter Table
Parameter Symbol Value Units Sigma Reference Notes
absolute magnitude H 17.1   n/a MPO402839  

452646 (2005 UZ129)          Discovered 2005-Oct-24 by Spacewatch at Kitt Peak
Reference: Last Updated: 2016-01-04

Alternate Designations
 2005 UZ129 = 2010 WU41 
Ephemeris | Orbit Diagram | Orbital Elements | Mission Design | Physical Parameters | Discovery Circumstances ]
ABOUT SSD CREDITS/AWARDS PRIVACY/COPYRIGHT GLOSSARY LINKS
FirstGov 2019-Dec-14 10:53 UT
(server date/time)  
NASA Home Page
Site Manager:   Ryan S. Park
Webmaster  Alan B. Chamberlin